Tracking 33407 objects as of 5-Mar-2026
HD Live streaming from Space Station
objects crossing your sky now

TITAN 3C TRANSTAGE DEB

Track TITAN 3C TRANSTAGE DEB now!


NORAD ID: 26777
Int'l Code: 1965-108AV
Perigee: 1,077.3 km
Apogee: 31,247.7 km
Inclination: 26.9 °
Period: 561.1 minutes
Semi major axis: 22533 km
RCS: 0.1056 m2 (medium)
Launch date: December 21, 1965
Source: United States (US)
Launch site: AIR FORCE EASTERN TEST RANGE (AFETR)

Note: This is SATELLITE DEBRIS
Your satellite tracking list
Your tracking list is empty




NASA's NSSDC Master Catalog

Two Line Element Set (TLE):
1 26777U 65108AV  26063.50403221 -.00000029  00000-0  00000-0 0  9995
2 26777  26.8761 231.8409 6694553  16.7101   2.8838  2.56660338 43355
Source of the keplerian elements: AFSPC